| time (UTC) | temp C | wind direction | speed KPH | gust KPH | rain 1hr cm | rain 24hr cm | rain mn cm | humidity % | barometer mb |
| 20260503184532 | 17 | 83 | 4.8 | 24.1 | 0.00 | 0.00 | 0.00 | 51 | 1017.5 |
| 20260503184014 | 16 | 146 | 9.7 | 24.1 | 0.00 | 0.00 | 0.00 | 47 | 1017.8 |
| 20260503183514 | 17 | 140 | 8.0 | 16.1 | 0.00 | 0.00 | 0.00 | 48 | 1017.8 |
| 20260503183030 | 17 | 253 | 4.8 | 16.1 | 0.00 | 0.00 | 0.00 | 55 | 1018.0 |
| 20260503182515 | 17 | 253 | 3.2 | 12.9 | 0.00 | 0.00 | 0.00 | 51 | 1018.0 |
| 20260503182016 | 16 | 243 | 3.2 | 19.3 | 0.00 | 0.00 | 0.00 | 54 | 1018.0 |
| 20260503181530 | 16 | 94 | 3.2 | 19.3 | 0.00 | 0.00 | 0.00 | 51 | 1018.2 |
| 20260503181015 | 16 | 240 | 6.4 | 19.3 | 0.00 | 0.00 | 0.00 | 51 | 1018.4 |
| 20260503180516 | 16 | 153 | 8.0 | 17.7 | 0.00 | 0.00 | 0.00 | 52 | 1018.4 |
| 20260503180032 | 16 | 129 | 6.4 | 22.5 | 0.00 | 0.00 | 0.00 | 54 | 1018.6 |
| 20260503175516 | 16 | 99 | 8.0 | 22.5 | 0.00 | 0.00 | 0.00 | 53 | 1018.6 |
| 20260503175015 | 16 | 160 | 8.0 | 22.5 | 0.00 | 0.00 | 0.00 | 53 | 1018.6 |
| 20260503174532 | 16 | 115 | 9.7 | 22.5 | 0.00 | 0.00 | 0.00 | 55 | 1018.7 |
| 20260503174014 | 16 | 130 | 8.0 | 19.3 | 0.00 | 0.00 | 0.00 | 50 | 1018.8 |
| 20260503173514 | 16 | 189 | 8.0 | 19.3 | 0.00 | 0.00 | 0.00 | 51 | 1018.9 |
| 20260503173038 | 16 | 126 | 3.2 | 11.3 | 0.00 | 0.00 | 0.00 | 53 | 1019.0 |
| 20260503172516 | 16 | 254 | 1.6 | 20.9 | 0.00 | 0.00 | 0.00 | 54 | 1019.0 |
| 20260503172015 | 16 | 101 | 6.4 | 20.9 | 0.00 | 0.00 | 0.00 | 55 | 1019.1 |
| 20260503171531 | 16 | 153 | 3.2 | 17.7 | 0.00 | 0.00 | 0.00 | 49 | 1019.4 |
| 20260503171017 | 16 | 175 | 4.8 | 17.7 | 0.00 | 0.00 | 0.00 | 53 | 1019.3 |
| 20260503170515 | 16 | 176 | 6.4 | 25.7 | 0.00 | 0.00 | 0.00 | 53 | 1019.6 |
| 20260503151014 | 14 | 55 | 3.2 | 14.5 | 0.00 | 0.00 | 0.00 | 58 | 1020.3 |
| 20260503150514 | 14 | 267 | 1.6 | 9.7 | 0.00 | 0.00 | 0.00 | 62 | 1020.4 |
| 20260503131018 | 9 | 144 | 3.2 | 9.7 | 0.00 | 0.00 | 0.00 | 71 | 1020.6 |
| 20260503130518 | 9 | 0 | 0.0 | 6.4 | 0.00 | 0.00 | 0.00 | 75 | 1020.6 |
| 20260503110515 | 1 | 0 | 0.0 | 0.0 | 0.00 | 0.00 | 0.00 | 91 | 1020.1 |
| 20260503081531 | 2 | 0 | 0.0 | 0.0 | 0.00 | 0.00 | 0.00 | 88 | 1019.8 |
| 20260503081017 | 2 | 0 | 0.0 | 0.0 | 0.00 | 0.00 | 0.00 | 88 | 1019.8 |
| 20260503080514 | 2 | 0 | 0.0 | 0.0 | 0.00 | 0.00 | 0.00 | 88 | 1019.8 |
| 20260503072515 | 2 | 0 | 0.0 | 0.0 | 0.00 | 0.00 | 0.00 | 87 | 1019.9 |
| 20260503072012 | 2 | 0 | 0.0 | 0.0 | 0.00 | 0.00 | 0.00 | 87 | 1019.9 |
| 20260503071536 | 2 | 0 | 0.0 | 0.0 | 0.00 | 0.00 | 0.00 | 87 | 1020.0 |
| 20260503071016 | 2 | 0 | 0.0 | 0.0 | 0.00 | 0.00 | 0.00 | 87 | 1019.9 |
| 20260503070513 | 2 | 0 | 0.0 | 0.0 | 0.00 | 0.00 | 0.00 | 86 | 1019.9 |
| 20260503055014 | 2 | 0 | 0.0 | 0.0 | 0.00 | 0.00 | 0.00 | 83 | 1020.4 |
| 20260503054535 | 3 | 0 | 0.0 | 0.0 | 0.00 | 0.00 | 0.00 | 83 | 1020.4 |
| 20260503054015 | 3 | 0 | 0.0 | 0.0 | 0.00 | 0.00 | 0.00 | 83 | 1020.4 |
| 20260503053513 | 3 | 0 | 0.0 | 0.0 | 0.00 | 0.00 | 0.00 | 83 | 1020.4 |
| 20260503053033 | 3 | 0 | 0.0 | 0.0 | 0.00 | 0.00 | 0.00 | 82 | 1020.4 |
| 20260503052514 | 3 | 0 | 0.0 | 0.0 | 0.00 | 0.00 | 0.00 | 82 | 1020.3 |
| 20260503052017 | 3 | 0 | 0.0 | 0.0 | 0.00 | 0.00 | 0.00 | 82 | 1020.4 |
| 20260503051535 | 3 | 0 | 0.0 | 0.0 | 0.00 | 0.00 | 0.00 | 81 | 1020.4 |
| 20260503051012 | 3 | 0 | 0.0 | 0.0 | 0.00 | 0.00 | 0.00 | 81 | 1020.4 |
| 20260503050514 | 3 | 0 | 0.0 | 0.0 | 0.00 | 0.00 | 0.00 | 81 | 1020.4 |
| 20260503050037 | 3 | 0 | 0.0 | 0.0 | 0.00 | 0.00 | 0.00 | 81 | 1020.4 |
| 20260503045514 | 3 | 0 | 0.0 | 0.0 | 0.00 | 0.00 | 0.00 | 80 | 1020.4 |
| 20260503045018 | 3 | 0 | 0.0 | 0.0 | 0.00 | 0.00 | 0.00 | 80 | 1020.4 |
| 20260503044532 | 3 | 0 | 0.0 | 0.0 | 0.00 | 0.00 | 0.00 | 80 | 1020.3 |
| 20260503044013 | 3 | 0 | 0.0 | 0.0 | 0.00 | 0.00 | 0.00 | 79 | 1020.3 |
| 20260503043513 | 3 | 0 | 0.0 | 0.0 | 0.00 | 0.00 | 0.00 | 79 | 1020.4 |
| 20260503043031 | 3 | 0 | 0.0 | 0.0 | 0.00 | 0.00 | 0.00 | 78 | 1020.4 |
| 20260503042514 | 3 | 0 | 0.0 | 0.0 | 0.00 | 0.00 | 0.00 | 78 | 1020.3 |
| 20260503042014 | 3 | 0 | 0.0 | 0.0 | 0.00 | 0.00 | 0.00 | 77 | 1020.2 |
| 20260503041537 | 4 | 0 | 0.0 | 0.0 | 0.00 | 0.00 | 0.00 | 76 | 1020.2 |
| 20260503041013 | 4 | 0 | 0.0 | 0.0 | 0.00 | 0.00 | 0.00 | 76 | 1020.3 |
| 20260503040513 | 4 | 0 | 0.0 | 0.0 | 0.00 | 0.00 | 0.00 | 74 | 1020.3 |
| 20260503040029 | 4 | 0 | 0.0 | 0.0 | 0.00 | 0.00 | 0.00 | 74 | 1020.3 |
| 20260503035513 | 4 | 0 | 0.0 | 0.0 | 0.00 | 0.00 | 0.00 | 73 | 1020.3 |
| 20260503035013 | 4 | 0 | 0.0 | 0.0 | 0.00 | 0.00 | 0.00 | 73 | 1020.2 |
| 20260503034531 | 4 | 0 | 0.0 | 0.0 | 0.00 | 0.00 | 0.00 | 72 | 1020.2 |
| 20260503034015 | 5 | 0 | 0.0 | 0.0 | 0.00 | 0.00 | 0.00 | 71 | 1020.3 |
| 20260503033515 | 5 | 0 | 0.0 | 0.0 | 0.00 | 0.00 | 0.00 | 71 | 1020.4 |
| 20260503033033 | 5 | 0 | 0.0 | 0.0 | 0.00 | 0.00 | 0.00 | 70 | 1020.3 |
| 20260503032518 | 5 | 0 | 0.0 | 0.0 | 0.00 | 0.00 | 0.00 | 70 | 1020.3 |
| 20260503032015 | 5 | 0 | 0.0 | 0.0 | 0.00 | 0.00 | 0.00 | 70 | 1020.3 |
| 20260503031531 | 5 | 0 | 0.0 | 0.0 | 0.00 | 0.00 | 0.00 | 70 | 1020.2 |
| 20260503031014 | 5 | 0 | 0.0 | 0.0 | 0.00 | 0.00 | 0.00 | 69 | 1020.2 |
| 20260503030513 | 5 | 0 | 0.0 | 0.0 | 0.00 | 0.00 | 0.00 | 69 | 1020.2 |
| 20260503030044 | 6 | 0 | 0.0 | 0.0 | 0.00 | 0.00 | 0.00 | 69 | 1020.3 |
| 20260503025514 | 6 | 0 | 0.0 | 0.0 | 0.00 | 0.00 | 0.00 | 68 | 1020.3 |
| 20260503025015 | 6 | 0 | 0.0 | 0.0 | 0.00 | 0.00 | 0.00 | 67 | 1020.2 |
| 20260503024530 | 6 | 0 | 0.0 | 0.0 | 0.00 | 0.00 | 0.00 | 67 | 1020.2 |
| 20260503024014 | 6 | 0 | 0.0 | 0.0 | 0.00 | 0.00 | 0.00 | 67 | 1020.1 |
| 20260503023513 | 6 | 0 | 0.0 | 0.0 | 0.00 | 0.00 | 0.00 | 66 | 1020.1 |
| 20260503023031 | 6 | 0 | 0.0 | 0.0 | 0.00 | 0.00 | 0.00 | 65 | 1020.0 |
| 20260503022513 | 7 | 0 | 0.0 | 0.0 | 0.00 | 0.00 | 0.00 | 65 | 1020.0 |
| 20260503022016 | 7 | 0 | 0.0 | 0.0 | 0.00 | 0.00 | 0.00 | 63 | 1019.9 |
| 20260503021529 | 7 | 0 | 0.0 | 0.0 | 0.00 | 0.00 | 0.00 | 63 | 1019.9 |
| 20260503021013 | 7 | 0 | 0.0 | 0.0 | 0.00 | 0.00 | 0.00 | 62 | 1019.8 |
| 20260503020515 | 8 | 0 | 0.0 | 0.0 | 0.00 | 0.00 | 0.00 | 61 | 1019.9 |
| 20260503020030 | 8 | 0 | 0.0 | 0.0 | 0.00 | 0.00 | 0.00 | 61 | 1019.8 |
| 20260503015514 | 8 | 0 | 0.0 | 0.0 | 0.00 | 0.00 | 0.00 | 60 | 1019.8 |
| 20260503015014 | 8 | 0 | 0.0 | 0.0 | 0.00 | 0.00 | 0.00 | 59 | 1019.7 |
| 20260503014530 | 8 | 0 | 0.0 | 0.0 | 0.00 | 0.00 | 0.00 | 58 | 1019.6 |
| 20260503014015 | 9 | 0 | 0.0 | 0.0 | 0.00 | 0.00 | 0.00 | 57 | 1019.7 |
| 20260503013515 | 9 | 0 | 0.0 | 0.0 | 0.00 | 0.00 | 0.00 | 54 | 1019.6 |
| 20260503013036 | 9 | 0 | 0.0 | 0.0 | 0.00 | 0.00 | 0.00 | 52 | 1019.6 |
| 20260503012515 | 9 | 0 | 0.0 | 0.0 | 0.00 | 0.00 | 0.00 | 51 | 1019.5 |
| 20260503012015 | 10 | 0 | 0.0 | 1.6 | 0.00 | 0.00 | 0.00 | 50 | 1019.4 |
| 20260503011530 | 10 | 0 | 0.0 | 1.6 | 0.00 | 0.00 | 0.00 | 50 | 1019.4 |
| 20260503011014 | 10 | 0 | 0.0 | 1.6 | 0.00 | 0.00 | 0.00 | 49 | 1019.3 |
| 20260503010511 | 10 | 0 | 0.0 | 1.6 | 0.00 | 0.00 | 0.00 | 48 | 1019.3 |
| 20260503010036 | 10 | 0 | 0.0 | 0.0 | 0.00 | 0.00 | 0.00 | 49 | 1019.2 |
| 20260503005515 | 10 | 0 | 0.0 | 1.6 | 0.00 | 0.00 | 0.00 | 48 | 1019.2 |
| 20260503005016 | 10 | 0 | 0.0 | 1.6 | 0.00 | 0.00 | 0.00 | 48 | 1019.2 |
| 20260503004531 | 11 | 251 | 0.0 | 3.2 | 0.00 | 0.00 | 0.00 | 48 | 1019.1 |
| 20260503004016 | 11 | 0 | 0.0 | 3.2 | 0.00 | 0.00 | 0.00 | 49 | 1019.1 |
| 20260503003515 | 11 | 0 | 0.0 | 4.8 | 0.00 | 0.00 | 0.00 | 48 | 1019.1 |
| 20260503003029 | 11 | 0 | 0.0 | 4.8 | 0.00 | 0.00 | 0.00 | 47 | 1019.0 |
| 20260503002515 | 11 | 249 | 0.0 | 3.2 | 0.00 | 0.00 | 0.00 | 47 | 1018.9 |
| 20260503002015 | 11 | 0 | 0.0 | 3.2 | 0.00 | 0.00 | 0.00 | 47 | 1018.9 |
| 20260503001541 | 11 | 0 | 0.0 | 6.4 | 0.00 | 0.00 | 0.00 | 47 | 1018.9 |
| 20260503001015 | 11 | 248 | 0.0 | 6.4 | 0.00 | 0.00 | 0.00 | 45 | 1018.8 |
| 20260503000515 | 11 | 249 | 3.2 | 6.4 | 0.00 | 0.00 | 0.00 | 44 | 1018.8 |
| 20260503000030 | 12 | 225 | 1.6 | 14.5 | 0.00 | 0.00 | 0.00 | 44 | 1018.8 |
| 20260502235514 | 12 | 265 | 4.8 | 14.5 | 0.00 | 0.00 | 0.00 | 44 | 1018.7 |
| 20260502235015 | 12 | 255 | 1.6 | 11.3 | 0.00 | 0.00 | 0.00 | 44 | 1018.6 |
| 20260502234537 | 12 | 255 | 3.2 | 9.7 | 0.00 | 0.00 | 0.00 | 43 | 1018.7 |
| 20260502234019 | 12 | 263 | 1.6 | 6.4 | 0.00 | 0.00 | 0.00 | 44 | 1018.7 |
| 20260502233518 | 12 | 245 | 1.6 | 12.9 | 0.00 | 0.00 | 0.00 | 43 | 1018.7 |
| 20260502233030 | 13 | 242 | 1.6 | 12.9 | 0.00 | 0.00 | 0.00 | 43 | 1018.7 |
| 20260502232517 | 13 | 246 | 4.8 | 12.9 | 0.00 | 0.00 | 0.00 | 41 | 1018.7 |
| 20260502232012 | 13 | 221 | 3.2 | 11.3 | 0.00 | 0.00 | 0.00 | 41 | 1018.6 |
| 20260502231530 | 13 | 170 | 3.2 | 11.3 | 0.00 | 0.00 | 0.00 | 40 | 1018.6 |
| 20260502231015 | 13 | 234 | 3.2 | 9.7 | 0.00 | 0.00 | 0.00 | 42 | 1018.6 |
| 20260502230515 | 13 | 221 | 3.2 | 9.7 | 0.00 | 0.00 | 0.00 | 43 | 1018.7 |
| 20260502230034 | 13 | 240 | 3.2 | 11.3 | 0.00 | 0.00 | 0.00 | 43 | 1018.7 |
| 20260502225514 | 13 | 209 | 4.8 | 12.9 | 0.00 | 0.00 | 0.00 | 42 | 1018.7 |
| 20260502225020 | 13 | 232 | 3.2 | 14.5 | 0.00 | 0.00 | 0.00 | 42 | 1018.6 |
| 20260502224532 | 13 | 223 | 4.8 | 16.1 | 0.00 | 0.00 | 0.00 | 43 | 1018.6 |
| 20260502224015 | 13 | 134 | 6.4 | 17.7 | 0.00 | 0.00 | 0.00 | 42 | 1018.5 |
| 20260502223515 | 13 | 254 | 6.4 | 17.7 | 0.00 | 0.00 | 0.00 | 40 | 1018.6 |
| 20260502223032 | 13 | 174 | 4.8 | 14.5 | 0.00 | 0.00 | 0.00 | 42 | 1018.6 |
| 20260502222514 | 13 | 254 | 1.6 | 12.9 | 0.00 | 0.00 | 0.00 | 42 | 1018.5 |
| 20260502222014 | 13 | 210 | 4.8 | 17.7 | 0.00 | 0.00 | 0.00 | 42 | 1018.5 |
| 20260502221532 | 13 | 156 | 8.0 | 17.7 | 0.00 | 0.00 | 0.00 | 42 | 1018.5 |
| 20260502221015 | 14 | 284 | 4.8 | 12.9 | 0.00 | 0.00 | 0.00 | 43 | 1018.3 |
| 20260502220515 | 14 | 240 | 4.8 | 14.5 | 0.00 | 0.00 | 0.00 | 43 | 1018.3 |
| 20260502220030 | 14 | 205 | 4.8 | 16.1 | 0.00 | 0.00 | 0.00 | 43 | 1018.3 |
| 20260502215516 | 14 | 226 | 4.8 | 16.1 | 0.00 | 0.00 | 0.00 | 46 | 1018.2 |
| 20260502215016 | 14 | 254 | 4.8 | 12.9 | 0.00 | 0.00 | 0.00 | 44 | 1018.3 |
| 20260502214531 | 14 | 236 | 3.2 | 12.9 | 0.00 | 0.00 | 0.00 | 45 | 1018.3 |
| 20260502214015 | 13 | 229 | 3.2 | 12.9 | 0.00 | 0.00 | 0.00 | 45 | 1018.2 |
| 20260502213515 | 13 | 260 | 6.4 | 12.9 | 0.00 | 0.00 | 0.00 | 44 | 1018.2 |
| 20260502213030 | 14 | 219 | 4.8 | 19.3 | 0.00 | 0.00 | 0.00 | 44 | 1018.2 |
| 20260502212518 | 14 | 243 | 3.2 | 22.5 | 0.00 | 0.00 | 0.00 | 48 | 1018.3 |
| 20260502212014 | 14 | 201 | 8.0 | 22.5 | 0.00 | 0.00 | 0.00 | 46 | 1018.2 |
| 20260502211530 | 14 | 279 | 3.2 | 14.5 | 0.00 | 0.00 | 0.00 | 50 | 1018.2 |
| 20260502211018 | 14 | 231 | 4.8 | 16.1 | 0.00 | 0.00 | 0.00 | 47 | 1018.2 |
| 20260502210514 | 13 | 160 | 4.8 | 17.7 | 0.00 | 0.00 | 0.00 | 48 | 1018.3 |
| 20260502210031 | 13 | 191 | 9.7 | 17.7 | 0.00 | 0.00 | 0.00 | 47 | 1018.3 |
| 20260502205517 | 13 | 143 | 4.8 | 11.3 | 0.00 | 0.00 | 0.00 | 51 | 1018.4 |
| 20260502205016 | 13 | 0 | 1.6 | 16.1 | 0.00 | 0.00 | 0.00 | 48 | 1018.3 |
| 20260502204530 | 13 | 221 | 4.8 | 16.1 | 0.00 | 0.00 | 0.00 | 51 | 1018.4 |
| 20260502204016 | 13 | 141 | 4.8 | 9.7 | 0.00 | 0.00 | 0.00 | 52 | 1018.4 |
| 20260502203515 | 12 | 138 | 3.2 | 9.7 | 0.00 | 0.00 | 0.00 | 54 | 1018.6 |
| 20260502203029 | 12 | 155 | 3.2 | 9.7 | 0.00 | 0.00 | 0.00 | 53 | 1018.6 |
| 20260502202515 | 12 | 255 | 3.2 | 9.7 | 0.00 | 0.00 | 0.00 | 53 | 1018.6 |
| 20260502202015 | 12 | 247 | 3.2 | 8.0 | 0.00 | 0.00 | 0.00 | 54 | 1018.7 |
| 20260502201530 | 12 | 261 | 0.0 | 6.4 | 0.00 | 0.00 | 0.00 | 56 | 1018.7 |
| 20260502201015 | 12 | 0 | 1.6 | 11.3 | 0.00 | 0.00 | 0.00 | 54 | 1018.7 |
| 20260502200518 | 12 | 214 | 3.2 | 11.3 | 0.00 | 0.00 | 0.00 | 54 | 1018.8 |
| 20260502200032 | 12 | 192 | 0.0 | 8.0 | 0.00 | 0.00 | 0.00 | 55 | 1018.8 |
| 20260502195515 | 12 | 247 | 1.6 | 8.0 | 0.00 | 0.00 | 0.00 | 54 | 1018.8 |
| 20260502195014 | 12 | 243 | 3.2 | 11.3 | 0.00 | 0.00 | 0.00 | 55 | 1018.9 |
| 20260502194533 | 12 | 259 | 3.2 | 11.3 | 0.00 | 0.00 | 0.00 | 53 | 1018.8 |
| 20260502194014 | 12 | 261 | 6.4 | 19.3 | 0.00 | 0.00 | 0.00 | 54 | 1018.8 |
| 20260502193514 | 12 | 17 | 3.2 | 19.3 | 0.00 | 0.00 | 0.00 | 56 | 1018.9 |
| 20260502193030 | 12 | 261 | 1.6 | 8.0 | 0.00 | 0.00 | 0.00 | 59 | 1018.9 |
| 20260502192516 | 12 | 337 | 1.6 | 4.8 | 0.00 | 0.00 | 0.00 | 57 | 1018.9 |
| 20260502192016 | 12 | 264 | 1.6 | 4.8 | 0.00 | 0.00 | 0.00 | 57 | 1019.0 |
| 20260502191529 | 12 | 0 | 0.0 | 6.4 | 0.00 | 0.00 | 0.00 | 57 | 1019.0 |
| 20260502191015 | 12 | 0 | 0.0 | 9.7 | 0.00 | 0.00 | 0.00 | 56 | 1019.1 |
| 20260502190515 | 12 | 232 | 3.2 | 11.3 | 0.00 | 0.00 | 0.00 | 56 | 1019.1 |
| 20260502190037 | 12 | 269 | 3.2 | 11.3 | 0.00 | 0.00 | 0.00 | 57 | 1019.1 |
| 20260502185515 | 12 | 294 | 1.6 | 9.7 | 0.00 | 0.00 | 0.00 | 57 | 1019.1 |
| 20260502185012 | 12 | 255 | 3.2 | 9.7 | 0.00 | 0.00 | 0.00 | 56 | 1019.0 |